| time (UTC) | temp F | wind direction | speed MPH | gust MPH | rain 1hr in | rain 24hr in | rain mn in | humidity % | barometer mb |
| 20260506224036 | 47 | 347 | 0.0 | 0.0 | 0.00 | 0.35 | 0.07 | 91 | 1011.8 |
| 20260506223545 | 47 | 347 | 0.0 | 1.0 | 0.00 | 0.35 | 0.07 | 91 | 1011.7 |
| 20260506223031 | 47 | 347 | 0.0 | 1.0 | 0.00 | 0.35 | 0.07 | 91 | 1011.8 |
| 20260506222541 | 47 | 347 | 0.0 | 0.0 | 0.00 | 0.35 | 0.07 | 91 | 1011.8 |
| 20260506222029 | 48 | 347 | 0.0 | 1.0 | 0.00 | 0.35 | 0.07 | 90 | 1011.7 |
| 20260506221536 | 48 | 347 | 0.0 | 1.0 | 0.00 | 0.35 | 0.07 | 90 | 1011.8 |
| 20260506221033 | 48 | 345 | 0.0 | 1.0 | 0.00 | 0.35 | 0.07 | 90 | 1011.7 |
| 20260506220544 | 48 | 333 | 0.0 | 1.0 | 0.00 | 0.35 | 0.07 | 89 | 1011.7 |
| 20260506220042 | 48 | 343 | 0.0 | 2.0 | 0.00 | 0.35 | 0.07 | 89 | 1011.7 |
| 20260506215533 | 49 | 340 | 0.0 | 3.0 | 0.00 | 0.35 | 0.07 | 89 | 1011.6 |
| 20260506215043 | 49 | 332 | 1.0 | 3.0 | 0.00 | 0.35 | 0.07 | 89 | 1011.6 |
| 20260506214546 | 49 | 333 | 1.0 | 2.0 | 0.00 | 0.35 | 0.07 | 88 | 1011.6 |
| 20260506214030 | 49 | 341 | 0.0 | 2.0 | 0.00 | 0.35 | 0.07 | 88 | 1011.6 |
| 20260506213536 | 49 | 327 | 1.0 | 3.0 | 0.00 | 0.35 | 0.07 | 88 | 1011.5 |
| 20260506213043 | 50 | 334 | 1.0 | 3.0 | 0.00 | 0.35 | 0.07 | 88 | 1011.4 |
| 20260506212544 | 50 | 338 | 1.0 | 5.0 | 0.00 | 0.35 | 0.07 | 88 | 1011.4 |
| 20260506212030 | 50 | 333 | 1.0 | 5.0 | 0.00 | 0.35 | 0.07 | 88 | 1011.3 |
| 20260506211531 | 50 | 330 | 1.0 | 5.0 | 0.00 | 0.35 | 0.07 | 88 | 1011.4 |
| 20260506211033 | 50 | 319 | 1.0 | 5.0 | 0.00 | 0.35 | 0.07 | 88 | 1011.3 |
| 20260506210544 | 50 | 344 | 2.0 | 5.0 | 0.00 | 0.35 | 0.07 | 88 | 1011.3 |
| 20260506210046 | 49 | 12 | 2.0 | 4.0 | 0.00 | 0.35 | 0.07 | 88 | 1011.3 |
| 20260506205536 | 50 | 342 | 2.0 | 4.0 | 0.00 | 0.35 | 0.07 | 87 | 1011.2 |
| 20260506205046 | 50 | 327 | 2.0 | 4.0 | 0.00 | 0.35 | 0.07 | 87 | 1011.2 |
| 20260506204558 | 50 | 327 | 1.0 | 4.0 | 0.00 | 0.35 | 0.07 | 87 | 1011.2 |
| 20260506204036 | 50 | 360 | 2.0 | 5.0 | 0.00 | 0.35 | 0.07 | 87 | 1011.1 |
| 20260506203538 | 50 | 332 | 2.0 | 5.0 | 0.00 | 0.35 | 0.07 | 87 | 1011.0 |
| 20260506203033 | 50 | 355 | 2.0 | 5.0 | 0.00 | 0.35 | 0.07 | 87 | 1010.9 |
| 20260506202532 | 50 | 350 | 2.0 | 4.0 | 0.00 | 0.35 | 0.07 | 87 | 1010.9 |
| 20260506202051 | 51 | 344 | 1.0 | 4.0 | 0.00 | 0.35 | 0.07 | 87 | 1010.8 |
| 20260506201537 | 51 | 355 | 1.0 | 3.0 | 0.00 | 0.35 | 0.07 | 87 | 1010.8 |
| 20260506201030 | 51 | 340 | 0.0 | 3.0 | 0.00 | 0.35 | 0.07 | 87 | 1010.8 |
| 20260506200604 | 51 | 334 | 1.0 | 3.0 | 0.00 | 0.35 | 0.07 | 86 | 1010.7 |
| 20260506200036 | 51 | 347 | 1.0 | 3.0 | 0.00 | 0.39 | 0.07 | 86 | 1010.6 |
| 20260506195542 | 51 | 342 | 1.0 | 3.0 | 0.00 | 0.39 | 0.07 | 86 | 1010.6 |
| 20260506195040 | 52 | 344 | 1.0 | 1.0 | 0.00 | 0.39 | 0.07 | 86 | 1010.5 |
| 20260506194540 | 52 | 346 | 0.0 | 1.0 | 0.00 | 0.39 | 0.07 | 86 | 1010.4 |
| 20260506194040 | 52 | 348 | 0.0 | 0.0 | 0.00 | 0.39 | 0.07 | 85 | 1010.4 |
| 20260506193543 | 53 | 351 | 0.0 | 0.0 | 0.00 | 0.39 | 0.07 | 85 | 1010.3 |
| 20260506193030 | 53 | 347 | 0.0 | 0.0 | 0.00 | 0.39 | 0.07 | 84 | 1010.2 |
| 20260506192529 | 53 | 346 | 0.0 | 1.0 | 0.00 | 0.39 | 0.07 | 83 | 1010.1 |
| 20260506192056 | 53 | 350 | 0.0 | 2.0 | 0.00 | 0.39 | 0.07 | 82 | 1010.1 |
| 20260506191538 | 54 | 345 | 0.0 | 2.0 | 0.00 | 0.39 | 0.07 | 81 | 1010.1 |
| 20260506191032 | 54 | 349 | 1.0 | 2.0 | 0.00 | 0.39 | 0.07 | 81 | 1010.0 |
| 20260506190540 | 54 | 347 | 1.0 | 3.0 | 0.00 | 0.39 | 0.07 | 81 | 1010.0 |
| 20260506190043 | 54 | 5 | 1.0 | 4.0 | 0.00 | 0.39 | 0.07 | 80 | 1009.9 |
| 20260506185527 | 55 | 328 | 1.0 | 4.0 | 0.00 | 0.39 | 0.07 | 80 | 1009.9 |
| 20260506185028 | 55 | 5 | 1.0 | 4.0 | 0.00 | 0.39 | 0.07 | 79 | 1009.8 |
| 20260506184540 | 55 | 344 | 1.0 | 6.0 | 0.00 | 0.39 | 0.07 | 79 | 1009.7 |
| 20260506184042 | 55 | 339 | 2.0 | 6.0 | 0.00 | 0.39 | 0.07 | 78 | 1009.7 |
| 20260506183533 | 56 | 320 | 2.0 | 4.0 | 0.00 | 0.39 | 0.07 | 78 | 1009.6 |
| 20260506183033 | 56 | 360 | 1.0 | 3.0 | 0.00 | 0.39 | 0.07 | 79 | 1009.6 |
| 20260506182537 | 56 | 355 | 1.0 | 3.0 | 0.00 | 0.39 | 0.07 | 79 | 1009.5 |
| 20260506182058 | 56 | 355 | 1.0 | 4.0 | 0.00 | 0.39 | 0.07 | 78 | 1009.4 |
| 20260506181554 | 56 | 350 | 2.0 | 4.0 | 0.00 | 0.39 | 0.07 | 78 | 1009.4 |
| 20260506181041 | 56 | 320 | 2.0 | 4.0 | 0.00 | 0.39 | 0.07 | 77 | 1009.3 |
| 20260506180536 | 56 | 355 | 0.0 | 4.0 | 0.00 | 0.39 | 0.07 | 78 | 1009.3 |
| 20260506180042 | 56 | 355 | 2.0 | 4.0 | 0.00 | 0.43 | 0.07 | 78 | 1009.2 |
| 20260506175528 | 56 | 348 | 1.0 | 4.0 | 0.00 | 0.43 | 0.07 | 78 | 1009.2 |
| 20260506175056 | 56 | 9 | 1.0 | 4.0 | 0.00 | 0.43 | 0.07 | 78 | 1009.1 |
| 20260506174542 | 56 | 355 | 1.0 | 3.0 | 0.00 | 0.43 | 0.07 | 78 | 1009.1 |
| 20260506174052 | 56 | 336 | 1.0 | 3.0 | 0.00 | 0.43 | 0.07 | 78 | 1009.0 |
| 20260506173539 | 57 | 323 | 1.0 | 2.0 | 0.00 | 0.43 | 0.07 | 78 | 1009.0 |
| 20260506173036 | 57 | 355 | 1.0 | 3.0 | 0.00 | 0.43 | 0.07 | 79 | 1009.0 |
| 20260506172554 | 57 | 331 | 1.0 | 6.0 | 0.00 | 0.43 | 0.07 | 79 | 1008.9 |
| 20260506172028 | 57 | 319 | 1.0 | 8.0 | 0.00 | 0.43 | 0.07 | 79 | 1008.9 |
| 20260506171040 | 58 | 280 | 3.0 | 6.0 | 0.00 | 0.43 | 0.07 | 78 | 1008.8 |
| 20260506170545 | 58 | 310 | 2.0 | 6.0 | 0.00 | 0.43 | 0.07 | 78 | 1008.8 |
| 20260506170046 | 58 | 300 | 1.0 | 7.0 | 0.00 | 0.43 | 0.07 | 77 | 1008.8 |
| 20260506165533 | 58 | 300 | 2.0 | 7.0 | 0.00 | 0.43 | 0.07 | 77 | 1008.7 |
| 20260506165031 | 58 | 311 | 2.0 | 5.0 | 0.00 | 0.43 | 0.07 | 77 | 1008.7 |
| 20260506164531 | 58 | 313 | 1.0 | 5.0 | 0.00 | 0.43 | 0.07 | 76 | 1008.7 |
| 20260506164033 | 58 | 299 | 1.0 | 4.0 | 0.00 | 0.43 | 0.07 | 77 | 1008.8 |
| 20260506163534 | 58 | 341 | 1.0 | 4.0 | 0.00 | 0.43 | 0.07 | 76 | 1008.8 |
| 20260506163037 | 58 | 305 | 2.0 | 4.0 | 0.00 | 0.43 | 0.07 | 75 | 1008.8 |
| 20260506162542 | 58 | 341 | 1.0 | 5.0 | 0.00 | 0.43 | 0.07 | 77 | 1008.8 |
| 20260506162044 | 58 | 344 | 2.0 | 5.0 | 0.00 | 0.43 | 0.07 | 75 | 1008.8 |
| 20260506161529 | 59 | 293 | 2.0 | 4.0 | 0.00 | 0.43 | 0.07 | 75 | 1008.8 |
| 20260506161052 | 59 | 304 | 1.0 | 4.0 | 0.00 | 0.43 | 0.07 | 75 | 1008.7 |
| 20260506160540 | 59 | 306 | 1.0 | 6.0 | 0.00 | 0.43 | 0.07 | 73 | 1008.7 |
| 20260506160035 | 59 | 305 | 2.0 | 6.0 | 0.00 | 0.43 | 0.07 | 73 | 1008.7 |
| 20260506155607 | 60 | 11 | 1.0 | 5.0 | 0.00 | 0.43 | 0.07 | 75 | 1008.7 |
| 20260506155106 | 59 | 313 | 2.0 | 5.0 | 0.00 | 0.43 | 0.07 | 75 | 1008.7 |
| 20260506154556 | 59 | 302 | 2.0 | 5.0 | 0.00 | 0.43 | 0.07 | 76 | 1008.7 |
| 20260506154057 | 60 | 280 | 2.0 | 6.0 | 0.00 | 0.43 | 0.07 | 73 | 1008.7 |
| 20260506153547 | 60 | 329 | 1.0 | 5.0 | 0.00 | 0.43 | 0.07 | 73 | 1008.7 |
| 20260506153041 | 60 | 291 | 1.0 | 5.0 | 0.00 | 0.43 | 0.07 | 74 | 1008.7 |
| 20260506152546 | 60 | 306 | 1.0 | 3.0 | 0.00 | 0.43 | 0.07 | 73 | 1008.6 |
| 20260506152105 | 60 | 360 | 1.0 | 6.0 | 0.00 | 0.43 | 0.07 | 72 | 1008.6 |
| 20260506151537 | 60 | 309 | 3.0 | 6.0 | 0.00 | 0.43 | 0.07 | 73 | 1008.6 |
| 20260506151037 | 60 | 287 | 2.0 | 6.0 | 0.00 | 0.43 | 0.07 | 72 | 1008.6 |
| 20260506150540 | 60 | 315 | 2.0 | 7.0 | 0.00 | 0.43 | 0.07 | 75 | 1008.6 |
| 20260506150037 | 60 | 346 | 1.0 | 4.0 | 0.00 | 0.43 | 0.07 | 73 | 1008.6 |
| 20260506145528 | 59 | 360 | 1.0 | 4.0 | 0.00 | 0.43 | 0.07 | 76 | 1008.6 |
| 20260506145028 | 59 | 330 | 1.0 | 5.0 | 0.00 | 0.43 | 0.07 | 74 | 1008.7 |
| 20260506144535 | 59 | 5 | 3.0 | 5.0 | 0.00 | 0.43 | 0.07 | 73 | 1008.7 |
| 20260506144035 | 59 | 317 | 1.0 | 8.0 | 0.00 | 0.43 | 0.07 | 75 | 1008.7 |
| 20260506143537 | 58 | 318 | 3.0 | 8.0 | 0.00 | 0.43 | 0.07 | 74 | 1008.7 |
| 20260506143041 | 58 | 348 | 2.0 | 8.0 | 0.00 | 0.43 | 0.07 | 74 | 1008.7 |
| 20260506142543 | 59 | 15 | 3.0 | 6.0 | 0.00 | 0.43 | 0.07 | 72 | 1008.7 |
| 20260506142026 | 58 | 321 | 2.0 | 5.0 | 0.00 | 0.43 | 0.07 | 73 | 1008.7 |
| 20260506141529 | 58 | 304 | 2.0 | 8.0 | 0.00 | 0.43 | 0.07 | 74 | 1008.8 |
| 20260506141035 | 58 | 22 | 4.0 | 9.0 | 0.00 | 0.43 | 0.07 | 74 | 1008.8 |
| 20260506140537 | 58 | 331 | 4.0 | 9.0 | 0.00 | 0.43 | 0.07 | 72 | 1008.8 |
| 20260506140042 | 59 | 306 | 4.0 | 9.0 | 0.00 | 0.43 | 0.07 | 75 | 1008.8 |
| 20260506135542 | 59 | 337 | 4.0 | 9.0 | 0.00 | 0.43 | 0.07 | 78 | 1008.8 |
| 20260506135031 | 58 | 344 | 3.0 | 6.0 | 0.00 | 0.43 | 0.07 | 74 | 1008.8 |
| 20260506134537 | 58 | 331 | 1.0 | 8.0 | 0.00 | 0.43 | 0.07 | 79 | 1008.8 |
| 20260506134034 | 58 | 355 | 2.0 | 8.0 | 0.00 | 0.43 | 0.07 | 79 | 1008.8 |
| 20260506133542 | 57 | 326 | 2.0 | 8.0 | 0.00 | 0.43 | 0.07 | 81 | 1008.8 |
| 20260506133042 | 57 | 324 | 3.0 | 8.0 | 0.00 | 0.43 | 0.07 | 79 | 1008.9 |
| 20260506132527 | 58 | 15 | 2.0 | 5.0 | 0.00 | 0.43 | 0.07 | 80 | 1009.0 |
| 20260506132044 | 57 | 323 | 1.0 | 4.0 | 0.00 | 0.43 | 0.07 | 82 | 1008.9 |
| 20260506131531 | 57 | 355 | 1.0 | 8.0 | 0.00 | 0.43 | 0.07 | 81 | 1009.0 |
| 20260506131027 | 57 | 343 | 2.0 | 8.0 | 0.00 | 0.43 | 0.07 | 79 | 1009.0 |
| 20260506130533 | 57 | 346 | 3.0 | 6.0 | 0.00 | 0.43 | 0.07 | 80 | 1009.0 |
| 20260506130051 | 57 | 338 | 4.0 | 6.0 | 0.00 | 0.43 | 0.07 | 81 | 1008.9 |
| 20260506125540 | 57 | 23 | 2.0 | 8.0 | 0.00 | 0.43 | 0.07 | 80 | 1009.0 |
| 20260506125041 | 57 | 17 | 3.0 | 8.0 | 0.00 | 0.43 | 0.07 | 82 | 1008.9 |
| 20260506124528 | 57 | 351 | 2.0 | 7.0 | 0.00 | 0.43 | 0.07 | 83 | 1008.9 |
| 20260506124028 | 56 | 331 | 2.0 | 8.0 | 0.00 | 0.43 | 0.07 | 83 | 1008.8 |
| 20260506123533 | 56 | 333 | 2.0 | 8.0 | 0.00 | 0.43 | 0.07 | 84 | 1008.8 |
| 20260506123033 | 56 | 345 | 3.0 | 6.0 | 0.00 | 0.43 | 0.07 | 85 | 1008.8 |
| 20260506122540 | 55 | 5 | 1.0 | 5.0 | 0.00 | 0.43 | 0.07 | 85 | 1008.8 |
| 20260506121530 | 55 | 334 | 2.0 | 6.0 | 0.00 | 0.43 | 0.07 | 85 | 1008.7 |
| 20260506121029 | 54 | 341 | 3.0 | 9.0 | 0.00 | 0.43 | 0.07 | 83 | 1008.7 |
| 20260506120532 | 54 | 323 | 3.0 | 9.0 | 0.00 | 0.43 | 0.07 | 83 | 1008.7 |
| 20260506120027 | 54 | 323 | 2.0 | 5.0 | 0.00 | 0.43 | 0.07 | 84 | 1008.8 |
| 20260506115531 | 54 | 349 | 2.0 | 9.0 | 0.00 | 0.43 | 0.07 | 84 | 1008.8 |
| 20260506115056 | 54 | 336 | 3.0 | 9.0 | 0.00 | 0.43 | 0.07 | 83 | 1008.8 |
| 20260506114528 | 54 | 355 | 3.0 | 8.0 | 0.00 | 0.43 | 0.07 | 85 | 1008.8 |
| 20260506114102 | 54 | 348 | 3.0 | 8.0 | 0.00 | 0.43 | 0.07 | 85 | 1008.8 |
| 20260506113552 | 54 | 333 | 3.0 | 8.0 | 0.00 | 0.43 | 0.07 | 85 | 1008.8 |
| 20260506113033 | 53 | 355 | 2.0 | 6.0 | 0.00 | 0.43 | 0.07 | 87 | 1008.8 |
| 20260506112541 | 53 | 339 | 2.0 | 6.0 | 0.00 | 0.43 | 0.07 | 88 | 1008.7 |
| 20260506112041 | 53 | 16 | 2.0 | 5.0 | 0.00 | 0.43 | 0.07 | 88 | 1008.8 |
| 20260506111530 | 53 | 343 | 1.0 | 5.0 | 0.00 | 0.43 | 0.07 | 89 | 1008.8 |
| 20260506111044 | 52 | 344 | 2.0 | 5.0 | 0.00 | 0.43 | 0.07 | 88 | 1008.7 |
| 20260506110542 | 52 | 355 | 2.0 | 8.0 | 0.00 | 0.43 | 0.07 | 88 | 1008.7 |
| 20260506110055 | 52 | 355 | 3.0 | 8.0 | 0.00 | 0.75 | 0.07 | 87 | 1008.7 |
| 20260506105532 | 52 | 347 | 2.0 | 6.0 | 0.00 | 0.75 | 0.07 | 88 | 1008.7 |
| 20260506105032 | 52 | 335 | 3.0 | 8.0 | 0.00 | 0.75 | 0.07 | 87 | 1008.7 |
| 20260506104540 | 52 | 16 | 3.0 | 9.0 | 0.00 | 0.75 | 0.07 | 87 | 1008.7 |
| 20260506104038 | 52 | 19 | 3.0 | 10.0 | 0.00 | 0.75 | 0.07 | 87 | 1008.7 |
| 20260506103531 | 52 | 5 | 4.0 | 10.0 | 0.00 | 0.75 | 0.07 | 89 | 1008.6 |
| 20260506103029 | 52 | 347 | 4.0 | 9.0 | 0.00 | 0.75 | 0.07 | 88 | 1008.6 |
| 20260506102541 | 52 | 335 | 2.0 | 12.0 | 0.00 | 0.75 | 0.07 | 89 | 1008.6 |
| 20260506102028 | 52 | 19 | 5.0 | 12.0 | 0.00 | 0.75 | 0.07 | 89 | 1008.6 |
| 20260506101530 | 52 | 355 | 8.0 | 12.0 | 0.00 | 0.75 | 0.07 | 88 | 1008.5 |
| 20260506101055 | 52 | 338 | 5.0 | 11.0 | 0.00 | 0.75 | 0.07 | 90 | 1008.5 |
| 20260506100539 | 52 | 17 | 5.0 | 12.0 | 0.00 | 0.75 | 0.07 | 90 | 1008.4 |
| 20260506100034 | 52 | 14 | 5.0 | 14.0 | 0.00 | 0.83 | 0.07 | 89 | 1008.4 |
| 20260506095532 | 52 | 355 | 9.0 | 14.0 | 0.00 | 0.83 | 0.07 | 88 | 1008.3 |
| 20260506095032 | 52 | 19 | 8.0 | 14.0 | 0.00 | 0.83 | 0.07 | 89 | 1008.2 |
| 20260506094537 | 52 | 22 | 8.0 | 13.0 | 0.00 | 0.83 | 0.07 | 90 | 1008.2 |
| 20260506094033 | 52 | 355 | 8.0 | 13.0 | 0.00 | 0.83 | 0.07 | 89 | 1008.1 |
| 20260506093532 | 52 | 335 | 7.0 | 14.0 | 0.00 | 0.83 | 0.07 | 89 | 1008.0 |
| 20260506093031 | 52 | 13 | 9.0 | 14.0 | 0.00 | 0.83 | 0.07 | 90 | 1008.0 |
| 20260506092601 | 52 | 355 | 7.0 | 12.0 | 0.00 | 0.83 | 0.07 | 90 | 1008.0 |
| 20260506092045 | 52 | 360 | 7.0 | 16.0 | 0.00 | 0.83 | 0.07 | 91 | 1007.9 |
| 20260506091528 | 51 | 67 | 11.0 | 16.0 | 0.04 | 0.83 | 0.07 | 91 | 1007.8 |
| 20260506091027 | 51 | 355 | 9.0 | 13.0 | 0.04 | 0.83 | 0.07 | 92 | 1007.8 |
| 20260506090534 | 51 | 344 | 6.0 | 14.0 | 0.04 | 0.83 | 0.07 | 93 | 1007.8 |
| 20260506090035 | 51 | 355 | 10.0 | 17.0 | 0.04 | 1.22 | 0.07 | 92 | 1007.7 |
| 20260506085546 | 51 | 9 | 9.0 | 17.0 | 0.04 | 1.22 | 0.07 | 93 | 1007.7 |
| 20260506085045 | 51 | 5 | 8.0 | 15.0 | 0.04 | 1.22 | 0.07 | 93 | 1007.6 |
| 20260506084534 | 51 | 13 | 10.0 | 15.0 | 0.04 | 1.22 | 0.07 | 93 | 1007.5 |
| 20260506084034 | 51 | 346 | 10.0 | 15.0 | 0.04 | 1.22 | 0.07 | 93 | 1007.6 |
| 20260506083540 | 51 | 348 | 9.0 | 14.0 | 0.04 | 1.22 | 0.07 | 93 | 1007.5 |
| 20260506083038 | 51 | 340 | 7.0 | 14.0 | 0.04 | 1.22 | 0.07 | 94 | 1007.5 |
| 20260506082530 | 51 | 10 | 9.0 | 15.0 | 0.04 | 1.22 | 0.07 | 94 | 1007.4 |
| 20260506082027 | 51 | 5 | 9.0 | 14.0 | 0.04 | 1.22 | 0.07 | 93 | 1007.5 |
| 20260506081541 | 51 | 342 | 7.0 | 13.0 | 0.00 | 1.18 | 0.06 | 94 | 1007.4 |
| 20260506081043 | 51 | 355 | 6.0 | 12.0 | 0.00 | 1.18 | 0.06 | 95 | 1007.3 |
| 20260506080528 | 51 | 22 | 7.0 | 12.0 | 0.00 | 1.18 | 0.06 | 95 | 1007.2 |
| 20260506073042 | 51 | 355 | 7.0 | 13.0 | 0.04 | 1.85 | 0.06 | 96 | 1007.0 |
| 20260506072542 | 51 | 5 | 7.0 | 13.0 | 0.08 | 1.85 | 0.06 | 96 | 1006.8 |
| 20260506072027 | 51 | 13 | 8.0 | 13.0 | 0.08 | 1.85 | 0.06 | 96 | 1006.8 |
| 20260506071536 | 51 | 17 | 8.0 | 11.0 | 0.08 | 1.85 | 0.06 | 96 | 1006.8 |
| 20260506071045 | 51 | 350 | 5.0 | 10.0 | 0.08 | 1.85 | 0.06 | 96 | 1006.8 |
| 20260506070531 | 51 | 355 | 4.0 | 11.0 | 0.08 | 1.85 | 0.06 | 97 | 1006.7 |
| 20260506062042 | 51 | 360 | 5.0 | 10.0 | 0.04 | 2.64 | 0.05 | 96 | 1006.3 |
| 20260506061538 | 51 | 23 | 3.0 | 10.0 | 0.04 | 2.64 | 0.05 | 96 | 1006.3 |
| 20260506061033 | 51 | 344 | 5.0 | 10.0 | 0.04 | 2.64 | 0.05 | 96 | 1006.3 |
| 20260506060526 | 51 | 351 | 4.0 | 8.0 | 0.04 | 2.64 | 0.05 | 96 | 1006.2 |
| 20260506060105 | 51 | 16 | 4.0 | 9.0 | 0.04 | 2.83 | 0.05 | 96 | 1006.1 |
| 20260506051050 | 51 | 355 | 4.0 | 9.0 | 0.00 | 2.80 | 0.04 | 96 | 1005.7 |
| 20260506050535 | 51 | 5 | 3.0 | 9.0 | 0.00 | 2.80 | 0.04 | 96 | 1005.6 |
| 20260506045034 | 51 | 355 | 3.0 | 11.0 | 0.00 | 2.80 | 0.04 | 96 | 1005.5 |
| 20260506044540 | 51 | 5 | 5.0 | 9.0 | 0.00 | 2.80 | 0.04 | 96 | 1005.5 |
| 20260506044046 | 51 | 9 | 5.0 | 12.0 | 0.04 | 2.80 | 0.04 | 96 | 1005.5 |
| 20260506043537 | 51 | 355 | 7.0 | 12.0 | 0.04 | 2.80 | 0.04 | 96 | 1005.4 |
| 20260506043033 | 51 | 360 | 5.0 | 15.0 | 0.04 | 2.80 | 0.04 | 96 | 1005.4 |
| 20260506042538 | 51 | 348 | 7.0 | 15.0 | 0.04 | 2.80 | 0.04 | 96 | 1005.3 |
| 20260506042039 | 51 | 348 | 4.0 | 12.0 | 0.04 | 2.80 | 0.04 | 96 | 1005.3 |
| 20260506041549 | 51 | 350 | 6.0 | 13.0 | 0.04 | 2.80 | 0.04 | 96 | 1005.2 |
| 20260506041028 | 52 | 333 | 7.0 | 13.0 | 0.04 | 2.80 | 0.04 | 97 | 1005.2 |
| 20260506040556 | 52 | 328 | 8.0 | 10.0 | 0.04 | 2.80 | 0.04 | 97 | 1005.1 |
| 20260506040028 | 52 | 344 | 5.0 | 9.0 | 0.04 | 2.87 | 0.04 | 97 | 1005.1 |
| 20260506035539 | 52 | 343 | 5.0 | 9.0 | 0.04 | 2.87 | 0.04 | 97 | 1005.1 |
| 20260506035040 | 52 | 342 | 4.0 | 9.0 | 0.04 | 2.87 | 0.04 | 97 | 1005.2 |
| 20260506034544 | 52 | 346 | 3.0 | 10.0 | 0.00 | 2.83 | 0.03 | 97 | 1005.3 |
| 20260506034043 | 52 | 348 | 4.0 | 10.0 | 0.04 | 2.83 | 0.03 | 96 | 1005.3 |
| 20260506033536 | 52 | 12 | 6.0 | 11.0 | 0.04 | 2.83 | 0.03 | 97 | 1005.3 |
| 20260506033030 | 52 | 355 | 7.0 | 11.0 | 0.04 | 2.83 | 0.03 | 96 | 1005.2 |
| 20260506032539 | 52 | 9 | 5.0 | 11.0 | 0.04 | 2.83 | 0.03 | 96 | 1005.3 |
| 20260506032037 | 52 | 322 | 6.0 | 11.0 | 0.04 | 2.83 | 0.03 | 96 | 1005.3 |
| 20260506031541 | 52 | 355 | 4.0 | 9.0 | 0.08 | 2.83 | 0.03 | 96 | 1005.2 |
| 20260506031053 | 52 | 341 | 4.0 | 9.0 | 0.08 | 2.83 | 0.03 | 97 | 1005.2 |
| 20260506030534 | 52 | 315 | 4.0 | 10.0 | 0.08 | 2.83 | 0.03 | 97 | 1005.2 |
| 20260506030031 | 52 | 332 | 5.0 | 10.0 | 0.08 | 2.99 | 0.03 | 96 | 1005.2 |
| 20260506025532 | 52 | 338 | 6.0 | 14.0 | 0.08 | 2.99 | 0.03 | 96 | 1005.2 |
| 20260506025036 | 53 | 10 | 6.0 | 14.0 | 0.08 | 2.99 | 0.03 | 96 | 1005.3 |
| 20260506024540 | 53 | 340 | 4.0 | 9.0 | 0.08 | 2.99 | 0.03 | 96 | 1005.3 |
| 20260506024042 | 53 | 336 | 5.0 | 9.0 | 0.04 | 2.95 | 0.02 | 96 | 1005.3 |
| 20260506023531 | 53 | 16 | 4.0 | 9.0 | 0.04 | 2.95 | 0.02 | 96 | 1005.3 |
| 20260506023037 | 53 | 360 | 4.0 | 6.0 | 0.04 | 2.95 | 0.02 | 96 | 1005.3 |
| 20260506022541 | 53 | 345 | 3.0 | 6.0 | 0.04 | 2.95 | 0.02 | 96 | 1005.4 |
| 20260506022045 | 53 | 325 | 1.0 | 5.0 | 0.04 | 2.95 | 0.02 | 96 | 1005.4 |
| 20260506021534 | 53 | 284 | 2.0 | 7.0 | 0.00 | 2.91 | 0.02 | 97 | 1005.4 |
| 20260506021029 | 53 | 267 | 3.0 | 7.0 | 0.00 | 2.91 | 0.02 | 97 | 1005.3 |
| 20260506020542 | 53 | 264 | 1.0 | 4.0 | 0.04 | 2.91 | 0.02 | 97 | 1005.2 |
| 20260506020058 | 53 | 268 | 1.0 | 5.0 | 0.04 | 2.91 | 0.02 | 97 | 1005.2 |
| 20260506015552 | 53 | 221 | 2.0 | 5.0 | 0.04 | 2.91 | 0.02 | 96 | 1005.3 |
| 20260506015047 | 53 | 234 | 1.0 | 4.0 | 0.08 | 2.91 | 0.02 | 96 | 1005.3 |
| 20260506014535 | 53 | 223 | 2.0 | 4.0 | 0.08 | 2.91 | 0.02 | 96 | 1005.3 |
| 20260506014034 | 53 | 234 | 2.0 | 4.0 | 0.08 | 2.91 | 0.02 | 96 | 1005.4 |
| 20260506013539 | 53 | 219 | 2.0 | 5.0 | 0.08 | 2.91 | 0.02 | 96 | 1005.5 |
| 20260506013036 | 53 | 220 | 2.0 | 5.0 | 0.08 | 2.91 | 0.02 | 96 | 1005.5 |
| 20260506012541 | 53 | 233 | 1.0 | 7.0 | 0.08 | 2.91 | 0.02 | 96 | 1005.5 |
| 20260506012034 | 53 | 235 | 3.0 | 8.0 | 0.08 | 2.91 | 0.02 | 96 | 1005.5 |
| 20260506011604 | 53 | 288 | 2.0 | 8.0 | 0.08 | 2.91 | 0.02 | 96 | 1005.5 |
| 20260506011036 | 53 | 284 | 2.0 | 6.0 | 0.08 | 2.91 | 0.02 | 96 | 1005.5 |
| 20260506010537 | 53 | 247 | 2.0 | 8.0 | 0.04 | 2.87 | 0.01 | 96 | 1005.6 |
| 20260506010037 | 53 | 250 | 2.0 | 8.0 | 0.04 | 2.87 | 0.01 | 96 | 1005.7 |
| 20260506005542 | 54 | 252 | 3.0 | 5.0 | 0.04 | 2.87 | 0.01 | 96 | 1005.7 |
| 20260506005038 | 54 | 235 | 2.0 | 6.0 | 0.00 | 2.83 | 0.00 | 96 | 1005.7 |
| 20260506004558 | 54 | 219 | 3.0 | 5.0 | 0.00 | 2.83 | 0.00 | 96 | 1005.8 |
| 20260506004033 | 54 | 219 | 1.0 | 5.0 | 0.00 | 2.83 | 0.00 | 96 | 1005.8 |
| 20260506003535 | 54 | 250 | 2.0 | 6.0 | 0.00 | 2.83 | 0.00 | 96 | 1005.9 |
| 20260506003037 | 54 | 211 | 2.0 | 5.0 | 0.00 | 2.83 | 0.00 | 96 | 1006.0 |
| 20260506002541 | 54 | 209 | 2.0 | 4.0 | 0.00 | 2.83 | 0.00 | 96 | 1006.0 |
| 20260506002042 | 54 | 198 | 1.0 | 5.0 | 0.00 | 2.83 | 0.00 | 96 | 1006.1 |
| 20260506001553 | 54 | 227 | 2.0 | 5.0 | 0.00 | 2.83 | 0.00 | 96 | 1006.1 |
| 20260506001039 | 54 | 246 | 2.0 | 4.0 | 0.00 | 2.83 | 0.00 | 96 | 1006.0 |
| 20260506000546 | 54 | 225 | 2.0 | 3.0 | 0.00 | 2.83 | 0.00 | 96 | 1006.0 |
| 20260506000045 | 54 | 242 | 1.0 | 3.0 | 0.00 | 2.83 | 0.57 | 96 | 1006.0 |
| 20260505235607 | 54 | 245 | 1.0 | 3.0 | 0.00 | 2.83 | 0.57 | 96 | 1006.1 |
| 20260505235050 | 54 | 236 | 1.0 | 4.0 | 0.00 | 2.83 | 0.57 | 96 | 1006.1 |
| 20260505234534 | 54 | 209 | 1.0 | 4.0 | 0.00 | 2.83 | 0.57 | 96 | 1006.1 |
| 20260505234033 | 54 | 209 | 1.0 | 4.0 | 0.00 | 2.83 | 0.57 | 96 | 1006.2 |
| 20260505233539 | 54 | 276 | 1.0 | 4.0 | 0.00 | 2.83 | 0.57 | 96 | 1006.1 |
| 20260505233043 | 54 | 238 | 2.0 | 4.0 | 0.00 | 2.83 | 0.57 | 96 | 1006.1 |
| 20260505232529 | 54 | 254 | 1.0 | 4.0 | 0.00 | 2.83 | 0.57 | 96 | 1006.2 |
| 20260505232029 | 54 | 281 | 2.0 | 5.0 | 0.00 | 2.83 | 0.57 | 96 | 1006.1 |
| 20260505231540 | 54 | 304 | 2.0 | 5.0 | 0.00 | 2.83 | 0.57 | 96 | 1006.1 |
| 20260505231043 | 54 | 279 | 2.0 | 4.0 | 0.00 | 2.83 | 0.57 | 96 | 1006.1 |
| 20260505230532 | 54 | 292 | 1.0 | 4.0 | 0.00 | 2.83 | 0.57 | 96 | 1006.2 |
| 20260505230043 | 54 | 282 | 1.0 | 5.0 | 0.00 | 2.83 | 0.57 | 96 | 1006.2 |
| 20260505225535 | 54 | 292 | 1.0 | 4.0 | 0.00 | 2.83 | 0.57 | 96 | 1006.3 |
| 20260505225030 | 54 | 284 | 2.0 | 4.0 | 0.00 | 2.83 | 0.57 | 96 | 1006.4 |
| 20260505224540 | 54 | 276 | 2.0 | 6.0 | 0.00 | 2.83 | 0.57 | 96 | 1006.4 |